Simultaneous Nadir Overpasses (SNOs) Predictions

Prediction of SNOs near US between AQUA and NPP Satellite Orbit:

Table of predicted SNOs near US for the next 10.0 days since TLE Epoch: 4/10/2015
Index Date (AQUA) Time (AQUA) AQUA Lat,Lon Date (NPP) Time (NPP) NPP Lat,Lon Distance(km) Time Diff (sec)
1 04/12/2015 06:31:22 46.45, -65.04 04/12/2015 06:35:45 46.85, -66.97 154.33 263
2 04/12/2015 08:09:17 49.90, -88.39 04/12/2015 08:16:14 50.36, -90.86 183.02 417
3 04/14/2015 19:07:29 49.99, -92.59 04/14/2015 19:06:27 49.71, -94.33 128.77 62
4 04/14/2015 20:44:52 44.64,-115.24 04/14/2015 20:46:22 44.23,-117.49 184.47 90
5 04/17/2015 06:57:19 20.03, -77.21 04/17/2015 06:49:40 19.90, -76.65 59.80 459
6 04/17/2015 08:34:41 25.52,-100.62 04/17/2015 08:29:34 25.52,-100.62 0.06 307
7 04/17/2015 10:09:24
